Regional Weather Roundup
Issued by NWS Sterling, VA

Home | Current Version | Previous Version | Text Only | Print | Product List | Glossary On
Versions: 1 2 3 4 5 6 7 8 9 10 11 12 13 14 15 16 17 18 19 20 21 22 23 24 25 26 27 28
000
ASUS41 KLWX 030310
RWRLWX

REGIONAL WEATHER ROUNDUP
NATIONAL WEATHER SERVICE BALTIMORE MD/WASHINGTON DC
1100 PM EDT MON MAY 02 2016

Note: "FAIR" indicates few or no clouds below 12,000 feet
with no significant weather and/or obstructions to visibility.
 TC=TEMPERATURE CELSIUS

 * =Non NWS site. Station does not report precipitation (e.g. rain,
    snow, etc.), thunder, or fog.

DCZ001-MDZ009-015-VAZ040>042-051-053>054-030400-
WASHINGTON METRO

CITY           SKY/WX    TMP DP  RH WIND       PRES   REMARKS
WASHINGTON NAT LGT RAIN  62  58  86 SE3       29.87F
DULLES         LGT RAIN  63  62  97 S6        29.87S
QUANTICO       HVY RAIN  67  64  90 CALM      29.89F FOG
COLLEGE PARK*  FAIR      59  59 100 CALM      29.86S
LEESBURG*      CLOUDY    64  64 100 S6        29.87R
MANASSAS*      CLOUDY    64  64 100 SE6       29.86
GAITHERSBURG*  CLOUDY    61  57  88 CALM      29.89F

$$

MDZ006>007-011-014-030400-
BALTIMORE METRO

CITY           SKY/WX    TMP DP  RH WIND       PRES   REMARKS
BWI AIRPORT    CLOUDY    64  62  93 NE3       29.86R
MD SCIENCE CTR   N/A     64  61  90 MISG      29.86F
MARTIN STATE     N/A     61  61 100 NE8       29.87F FOG
ANNAPOLIS      CLOUDY    63  62  97 NE7       29.87R FOG
FORT MEADE*    CLOUDY    61  59  94 E5        29.88S

$$

MDZ012-015-019>023-030400-
MARYLAND EASTERN SHORE

CITY           SKY/WX    TMP DP  RH WIND       PRES   REMARKS
OCEAN CITY     LGT RAIN  62  60  93 SW18G28   29.90R
SALISBURY      LGT RAIN  68  64  87 SW16G24   29.88R
CAMBRIDGE*     CLOUDY    68  63  83 S14G25    29.89R
EASTON*        HVY RAIN N/A N/A N/A CALM      29.92R

$$

MDZ017>025-030400-
SOUTHERN MARYLAND

CITY           SKY/WX    TMP DP  RH WIND       PRES   REMARKS
PATUXENT RIVER TSTM      67  63  87 SW8G24    29.92R FOG
ST INIGOES     TSTM      68  65  90 S10G21    29.91R FOG
LEONARDTOWN*   CLOUDY    64  61  88 W7G16     29.91R

$$

MDZ003>005-030400-
NORTH CENTRAL MARYLAND

CITY           SKY/WX    TMP DP  RH WIND       PRES   REMARKS
FREDERICK*     CLOUDY    61  61 100 S5        29.87F FOG
HAGERSTOWN APT CLOUDY    65  59  81 N6        29.86F
WESTMINSTER*   RAIN      63  61  94 N3        29.88F

$$

MDZ501>502-030400-
WESTERN MARYLAND

CITY           SKY/WX    TMP DP  RH WIND       PRES   REMARKS
OAKLAND*       CLOUDY    52  52 100 W3        29.92R
CUMBERLAND*    CLOUDY    64  59  82 CALM      29.90S

$$

VAZ025>031-030400-
SHENANDOAH VALLEY

CITY           SKY/WX    TMP DP  RH WIND       PRES   REMARKS
WINCHESTER*    RAIN      64  61  88 W5        29.87F
FRONT ROYAL*   MOCLDY    61  61 100 S6        29.86F
LURAY*         FAIR      61  61 100 CALM      29.87F
NEW MARKET*    MOCLDY    60  60 100 CALM      29.87R
STAUNTON*      MOCLDY   N/A N/A N/A CALM      29.91F
WAYNESBORO*    MOCLDY    60  59  96 CALM      29.90F

$$

WVZ021-048>050-054>055-030400-
EASTERN WEST VIRGINIA PANHANDLE

CITY           SKY/WX    TMP DP  RH WIND       PRES   REMARKS
MARTINSBURG    MOCLDY    66  61  84 N7        29.85S
PETERSBURG*    CLOUDY    66  55  68 CALM      29.87F

$$

VAZ036>039-050-030400-
CENTRAL FOOTHILLS

CITY           SKY/WX    TMP DP  RH WIND       PRES   REMARKS
CHARLOTTESVILL FAIR      63  60  90 SW5       29.87F
CULPEPER*      LGT RAIN  65  64  97 CALM      29.87F
ORANGE*        FAIR      63  63 100 CALM      29.89F
GORDONSVILLE*  FAIR      62  62 100 SW3       29.87F
WARRENTON*     LGT RAIN  66  60  80 SE7       29.85F

$$

VAZ055>057-030400-
NORTH AND CENTRAL PIEDMONT

CITY           SKY/WX    TMP DP  RH WIND       PRES   REMARKS
FREDERICKSBRG* RAIN      65  65 100 NE5       29.86F
STAFFORD*      CLOUDY    65  62  91 E7        29.89F

$$

NCZ024-NYZ072-PAZ021-071-VAZ022-071-030400-
OTHER REGIONAL OBSERVATIONS

CITY           SKY/WX    TMP DP  RH WIND       PRES   REMARKS
NEW YORK CITY  CLOUDY    57  51  80 N3        29.96S
PHILADELPHIA   TSTM      60  56  86 N3        29.92R FOG
PITTSBURGH     CLOUDY    53  45  74 N7        29.91F
ROANOKE        DRIZZLE   62  61  96 W3        29.94R
RICHMOND       TSTM      67  65  93 NW6       29.91R FOG
RALEIGH        CLOUDY    68  62  81 S15       29.92F

$$

ANZ530>537-030400-
MARINE OBSERVATIONS

STATION/POSITION TIME  TEMP    WIND        PRES
                       AIR SEA DIR/SP/G
                 (UTC) (F)     (DEG/KT/KT) (MB)
THOMAS PT LIGHT  0300   61 58   70/  8/ 10 1012.9F
BALT KEY BRIDGE  0200   64                 1012.4R
COVE POINT       0200   64                 1011.1R
LEWISETTA        0200   67 63              1011.4R
SOLOMONS ISLAND  0200   70 62                N/A
PINEY POINT      0200          220/ 19/ 22   N/A

$$





USA.gov is the U.S. government's official web portal to all federal, state and local government web resources and services.